Corpus Christi, TX

6:56 AM CDT on June 27, 2017 (GMT -0500)
Corpus Christi International

Weather History for KCRP - September, 2013

Change the Weather History Date:

Sunday, September 1, 2013

  Actual Average Record
Temperature  
Mean Temperature 87 °F 84 °F  
Max Temperature 99 °F 93 °F 103 °F (2000)
Min Temperature 74 °F 75 °F 67 °F (1950)
Degree Days  
Heating Degree Days 0 0  
Month to date heating degree days 0 0  
Since 1 July heating degree days 0 0  
Cooling Degree Days 22 19  
Month to date cooling degree days 22 19  
Year to date cooling degree days 3035 2580  
Growing Degree Days 36 (Base 50)    
Moisture  
Dew Point 72 °F    
Average Humidity 63    
Maximum Humidity 87    
Minimum Humidity 38    
Precipitation  
Precipitation 0.00 in 0.16 in 1.53 in (1970)
Month to date precipitation 0.00 0.16  
Year to date precipitation 11.01 19.50  
Snow  
Snow 0.00 in - - ()
Month to date snowfall 0.0  
Since 1 July snowfall 0.0  
Since 1 September snowfall 0.0  
Snow Depth 0.00 in    
Sea Level Pressure  
Sea Level Pressure 29.87 in    
Wind  
Wind Speed 9 mph (SSE)    
Max Wind Speed 21 mph    
Max Gust Speed 25 mph    
Visibility 10 miles    
Events      
T = Trace of Precipitation, MM = Missing Value Source: NWS Daily Summary

Daily Weather History Graph

Daily Weather History Graph

Search for Another Location

Airport or City:

Trip Planner

Search our weather history database for the weather conditions in past years. The results will help you decide how hot, cold, wet, or windy it might be!

Date:

Astronomy

Sep. 01, 2013 Rise Set
Actual Time 7:08 AM CDT 7:50 PM CDT
Civil Twilight 6:45 AM CDT 8:14 PM CDT
Nautical Twilight 6:17 AM CDT 8:42 PM CDT
Astronomical Twilight 5:48 AM CDT 9:10 PM CDT
Moon 3:44 AM CDT (9/1) 5:18 PM CDT (9/1)
Length of Visible Light 13h 29m
Length of Day
12h 41m
Waning Crescent, 13% of the Moon is Illuminated
Sep 1
Waning Crescent
Sep 5
New
Sep 12
First Quarter
Sep 19
Full
Sep 26
Last Quarter

Hourly Weather History & Observations

Time (CDT) Temp. Heat Index Dew Point Humidity Pressure Visibility Wind Dir Wind Speed Gust Speed Precip Events Conditions
12:51 AM 81.0 °F 86.2 °F 73.9 °F 79% 29.87 in 10.0 mi SSE 6.9 mph - N/A   Partly Cloudy
1:51 AM 82.0 °F 87.4 °F 73.0 °F 74% 29.87 in 10.0 mi South 8.1 mph - N/A   Partly Cloudy
2:51 AM 81.0 °F 85.8 °F 73.0 °F 77% 29.87 in 10.0 mi South 6.9 mph - N/A   Scattered Clouds
3:51 AM 79.0 °F - 72.0 °F 79% 29.86 in 10.0 mi SSE 4.6 mph - N/A   Partly Cloudy
4:51 AM 75.9 °F - 71.1 °F 85% 29.86 in 10.0 mi Calm Calm - N/A   Partly Cloudy
5:51 AM 75.9 °F - 71.1 °F 85% 29.86 in 10.0 mi Calm Calm - N/A   Partly Cloudy
6:51 AM 75.0 °F - 71.1 °F 87% 29.87 in 10.0 mi Calm Calm - N/A   Partly Cloudy
7:51 AM 78.1 °F - 73.0 °F 84% 29.89 in 10.0 mi Calm Calm - 0.00 in   Partly Cloudy
8:51 AM 84.9 °F 93.3 °F 75.0 °F 72% 29.91 in 10.0 mi South 5.8 mph - N/A   Partly Cloudy
9:51 AM 89.1 °F 98.0 °F 73.9 °F 61% 29.92 in 10.0 mi South 9.2 mph - N/A   Scattered Clouds
10:51 AM 93.9 °F 102.1 °F 72.0 °F 49% 29.91 in 10.0 mi South 10.4 mph - N/A   Scattered Clouds
11:51 AM 95.0 °F 100.7 °F 69.1 °F 43% 29.91 in 10.0 mi SSE 9.2 mph - N/A   Scattered Clouds
12:51 PM 97.0 °F 101.0 °F 66.9 °F 37% 29.88 in 10.0 mi SSE 6.9 mph 16.1 mph N/A   Scattered Clouds
1:51 PM 97.0 °F 103.5 °F 70.0 °F 41% 29.87 in 10.0 mi SE 11.5 mph 23.0 mph N/A   Scattered Clouds
2:51 PM 98.1 °F 106.5 °F 71.1 °F 42% 29.85 in 10.0 mi ESE 17.3 mph 24.2 mph N/A   Scattered Clouds
3:51 PM 98.1 °F 104.4 °F 69.1 °F 39% 29.83 in 10.0 mi SSE 15.0 mph 24.2 mph N/A   Scattered Clouds
4:51 PM 96.1 °F 103.5 °F 71.1 °F 44% 29.83 in 10.0 mi SE 17.3 mph - N/A   Partly Cloudy
5:51 PM 93.9 °F 102.1 °F 72.0 °F 49% 29.83 in 10.0 mi SE 19.6 mph 25.3 mph N/A   Partly Cloudy
6:51 PM 91.0 °F 98.2 °F 72.0 °F 53% 29.83 in 10.0 mi SSE 16.1 mph - N/A   Partly Cloudy
7:51 PM 88.0 °F 96.5 °F 73.9 °F 63% 29.84 in 10.0 mi SE 13.8 mph 20.7 mph N/A   Partly Cloudy
8:51 PM 86.0 °F 95.1 °F 75.0 °F 70% 29.85 in 10.0 mi SSE 13.8 mph - N/A   Partly Cloudy
9:51 PM 84.9 °F 93.3 °F 75.0 °F 72% 29.87 in 10.0 mi SSE 12.7 mph - N/A   Partly Cloudy
10:51 PM 84.9 °F 93.3 °F 75.0 °F 72% 29.88 in 10.0 mi SSE 9.2 mph - N/A   Partly Cloudy
11:51 PM 84.0 °F 92.6 °F 75.9 °F 76% 29.89 in 10.0 mi SSE 8.1 mph - N/A   Partly Cloudy